[[{"header":{"parameterUnit":"m.s-1","parameterCategory":1,"la1":30.2991,"la2":30.254,"lo1":-89.0895,"lo2":-89.0444,"dy":0.0017,"dx":0.0017,"nx":28,"ny":28,"refTime":"2025-11-17T09:00:00:Z","depth":0,"parameterNumber":2,"parameterNumberName":"U-component_of_WINDS"},"data":[0,0,0,0,0,0,0,0,0,0,0,0,0,0,0,0,0,0,0,0,0,0,0,0,0,0,0,0,0,0,0,0,0,0,0,0,0,0,0,0,0,0,0,0,0,0,0,0,0,0,0,0,0,0,0,0,0,0,-0.0967,-0.0967,0,-0.0988,-0.0989,-0.0989,-0.1019,-0.102,-0.102,-0.1021,-0.1043,-0.1043,-0.1043,0,0,0,0,0,0,0,0,0,0,0,0,0,-0.0952,-0.0952,-0.0967,-0.0967,-0.0968,-0.0988,-0.0989,-0.0989,-0.1019,-0.102,-0.102,-0.1021,-0.1043,-0.1043,-0.1043,0,0,0,0,0,0,0,0,0,0,0,0,0,-0.0965,-0.0952,-0.0967,-0.0985,-0.0987,-0.0988,-0.0989,-0.0989,-0.1019,-0.102,-0.102,-0.1021,-0.1042,-0.1043,-0.1043,-0.1028,0,0,-0.1043,-0.1043,0,0,0,0,0,0,0,0,-0.0964,-0.0965,-0.0982,-0.0984,-0.0986,-0.1002,-0.0992,-0.1002,-0.1019,-0.1007,-0.1021,-0.1022,-0.1028,-0.103,-0.1032,-0.1029,-0.103,-0.1043,-0.1043,-0.1043,-0.1043,0,0,0,0,0,0,0,-0.0963,-0.0964,-0.0976,-0.0982,-0.0985,-0.0992,-0.0995,-0.0994,-0.1013,-0.1008,-0.101,-0.1012,-0.103,-0.1032,-0.1033,-0.103,-0.1043,-0.1043,-0.1043,-0.1044,-0.1017,-0.1016,0,0,0,0,0,0,-0.0959,-0.0963,-0.0975,-0.0976,-0.0977,-0.0992,-0.0995,-0.0996,-0.1013,-0.1016,-0.1012,-0.1014,-0.1031,-0.1033,-0.1034,-0.1018,-0.1043,-0.1044,-0.1044,-0.1018,-0.1017,-0.1016,0,0,0,0,0,0,-0.0959,-0.096,-0.0974,-0.097,-0.0973,-0.0991,-0.0992,-0.0996,-0.0998,-0.1016,-0.1019,-0.101,-0.1032,-0.1033,-0.1029,-0.1019,-0.1044,-0.1044,-0.1019,-0.1017,-0.1016,-0.0986,0,0,0,0,0,0,-0.0958,-0.096,-0.0954,-0.097,-0.0973,-0.0969,-0.0992,-0.0996,-0.0999,-0.1001,-0.1016,-0.1019,-0.1033,-0.1029,-0.103,-0.102,-0.1044,-0.102,-0.1018,-0.1017,-0.0988,-0.0984,-0.0981,0,0,0,0,0,-0.0958,-0.0945,-0.0954,-0.0955,-0.0967,-0.0969,-0.097,-0.0986,-0.0998,-0.0992,-0.1004,-0.1018,-0.102,-0.1028,-0.1029,-0.1019,-0.102,-0.1019,-0.1017,-0.099,-0.0985,-0.0981,0,0,0,0,0,0,-0.0928,-0.0947,-0.0958,-0.095,-0.0957,-0.0974,-0.0968,-0.098,-0.0985,-0.0988,-0.1007,-0.101,-0.1004,-0.1011,-0.102,-0.1006,-0.1023,-0.1021,-0.1002,-0.0997,-0.0994,-0.0992,-0.1044,0,0,0,0,0,-0.092,-0.092,-0.0937,-0.0929,-0.0932,-0.0949,-0.095,-0.0962,-0.0971,-0.0974,-0.0985,-0.0993,-0.0996,-0.0997,-0.1,-0.0989,-0.0993,-0.0983,-0.0979,-0.0976,-0.0975,-0.097,-0.0966,-0.101,-0.101,-0.101,0,0,-0.0905,-0.0915,-0.0914,-0.0923,-0.093,-0.093,-0.0952,-0.095,-0.095,-0.0974,-0.0971,-0.0979,-0.0989,-0.0982,-0.0979,-0.0988,-0.0963,-0.0974,-0.0971,-0.0971,-0.0968,-0.0963,-0.096,-0.1009,-0.1009,-0.1009,0,0,-0.0876,-0.0884,-0.0878,-0.0885,-0.0895,-0.0907,-0.0905,-0.092,-0.0926,-0.0923,-0.0941,-0.0942,-0.0945,-0.0952,-0.0956,-0.0929,-0.0943,-0.093,-0.091,-0.0906,-0.0902,-0.0899,-0.089,-0.0887,-0.0928,-0.0928,-0.0928,0,-0.0856,-0.0856,-0.0873,-0.0871,-0.0874,-0.0896,-0.089,-0.0895,-0.0906,-0.0908,-0.0918,-0.0923,-0.0931,-0.0926,-0.0919,-0.0921,-0.0921,-0.0929,-0.0901,-0.0898,-0.0896,-0.0887,-0.0884,-0.0926,-0.0927,-0.0927,-0.0927,0,-0.083,-0.083,-0.0824,-0.0834,-0.0836,-0.0832,-0.0849,-0.0849,-0.0861,-0.0871,-0.0868,-0.0879,-0.0884,-0.0884,-0.0895,-0.088,-0.0885,-0.0897,-0.0914,-0.089,-0.0882,-0.0879,-0.0924,-0.0925,-0.0925,-0.0926,0,0,-0.0784,-0.0804,-0.0801,-0.0806,-0.0819,-0.082,-0.0816,-0.0822,-0.0822,-0.0829,-0.0827,-0.0829,-0.0841,-0.0845,-0.0857,-0.0853,-0.0832,-0.0866,-0.0866,-0.0859,-0.0816,-0.0807,-0.0803,-0.0841,-0.084,-0.084,-0.0816,0,-0.0759,-0.0754,-0.0769,-0.0761,-0.0761,-0.0781,-0.0779,-0.0786,-0.0796,-0.0797,-0.0808,-0.081,-0.0824,-0.0827,-0.0824,-0.0835,-0.0823,-0.0837,-0.0839,-0.0839,-0.0836,-0.0799,-0.079,-0.0767,-0.0813,-0.0812,-0.0812,0,-0.0729,-0.0734,-0.0725,-0.0739,-0.074,-0.0737,-0.0743,-0.0744,-0.0754,-0.0761,-0.0765,-0.0779,-0.0777,-0.0793,-0.079,-0.0799,-0.0801,-0.0806,-0.0806,-0.0807,-0.0824,-0.08,-0.076,-0.0756,-0.0807,-0.0808,-0.0808,0,-0.0696,-0.0701,-0.0697,-0.07,-0.0716,-0.0714,-0.072,-0.073,-0.0733,-0.0738,-0.074,-0.0745,-0.0748,-0.0752,-0.0767,-0.0777,-0.0762,-0.0779,-0.0769,-0.0768,-0.0765,-0.0765,-0.0725,-0.0765,-0.0765,-0.0765,-0.0766,0,-0.0667,-0.0661,-0.0683,-0.068,-0.0674,-0.0692,-0.0685,-0.0694,-0.0702,-0.0702,-0.0719,-0.0719,-0.0738,-0.0739,-0.0751,-0.0747,-0.0748,-0.0754,-0.0758,-0.0753,-0.0752,-0.0755,-0.0757,-0.0765,-0.0765,-0.0765,-0.0765,0,-0.063,-0.0645,-0.0641,-0.0656,-0.066,-0.0655,-0.0668,-0.0666,-0.0677,-0.0676,-0.0676,-0.0693,-0.0695,-0.071,-0.0716,-0.0724,-0.0716,-0.0722,-0.0713,-0.0715,-0.0704,-0.0705,-0.0665,-0.066,-0.0703,-0.0702,-0.0702,0,-0.0611,-0.0607,-0.0621,-0.0622,-0.0628,-0.0629,-0.0632,-0.0648,-0.065,-0.066,-0.0657,-0.0661,-0.0665,-0.0668,-0.0681,-0.0685,-0.0692,-0.0678,-0.0693,-0.0689,-0.0693,-0.0693,-0.0693,-0.0674,-0.0674,-0.0673,-0.0673,0,-0.0575,-0.0582,-0.0585,-0.0591,-0.0593,-0.0598,-0.0604,-0.0604,-0.0622,-0.0624,-0.0626,-0.0629,-0.0635,-0.0639,-0.0645,-0.0652,-0.0666,-0.0668,-0.0666,-0.0662,-0.0657,-0.066,-0.0705,-0.0669,-0.0669,-0.067,-0.067,-0.067,-0.0547,-0.0545,-0.0554,-0.0557,-0.0563,-0.0568,-0.0568,-0.0578,-0.058,-0.0586,-0.0596,-0.0597,-0.0607,-0.0617,-0.0623,-0.0624,-0.0632,-0.0629,-0.0628,-0.0627,-0.0625,-0.0656,-0.0625,-0.0625,-0.0625,-0.0626,-0.0626,0,-0.0513,-0.052,-0.0522,-0.053,-0.0532,-0.0544,-0.0551,-0.0552,-0.0553,-0.0561,-0.0564,-0.0567,-0.0571,-0.0583,-0.0588,-0.0587,-0.0593,-0.0588,-0.0588,-0.059,-0.0617,-0.0619,-0.0582,-0.0583,-0.0583,-0.0583,-0.0583,-0.0583,-0.0495,-0.0492,-0.05,-0.05,-0.0507,-0.0508,-0.0511,-0.0516,-0.0522,-0.0525,-0.0528,-0.0536,-0.0545,-0.0551,-0.0555,-0.0559,-0.056,-0.0552,-0.0558,-0.0584,-0.0588,-0.0592,-0.0593,-0.0552,-0.0552,-0.053,-0.053,-0.053]},{"header":{"parameterUnit":"m.s-1","parameterCategory":1,"la1":30.2991,"la2":30.254,"lo1":-89.0895,"lo2":-89.0444,"dy":0.0017,"dx":0.0017,"nx":28,"ny":28,"refTime":"2025-11-17T09:00:00:Z","depth":0,"parameterNumber":3,"parameterNumberName":"V-component_of_WINDS"},"data":[0,0,0,0,0,0,0,0,0,0,0,0,0,0,0,0,0,0,0,0,0,0,0,0,0,0,0,0,0,0,0,0,0,0,0,0,0,0,0,0,0,0,0,0,0,0,0,0,0,0,0,0,0,0,0,0,0,0,2.2706,2.2705,0,2.2672,2.2672,2.2671,2.2619,2.2618,2.2617,2.2616,2.2581,2.2581,2.2581,0,0,0,0,0,0,0,0,0,0,0,0,0,2.2725,2.2725,2.2706,2.2705,2.2705,2.2672,2.2672,2.2671,2.2619,2.2618,2.2617,2.2616,2.2581,2.2581,2.2581,0,0,0,0,0,0,0,0,0,0,0,0,0,2.2707,2.2725,2.2706,2.2675,2.2672,2.2672,2.2672,2.2671,2.2619,2.2618,2.2616,2.2615,2.2581,2.2581,2.2581,2.2609,0,0,2.2581,2.2581,0,0,0,0,0,0,0,0,2.2708,2.2706,2.268,2.2677,2.2674,2.2648,2.2666,2.265,2.262,2.2639,2.2616,2.2614,2.2605,2.2602,2.2599,2.2607,2.2606,2.2581,2.2581,2.2581,2.2581,0,0,0,0,0,0,0,2.2709,2.2707,2.2692,2.268,2.2676,2.2663,2.2659,2.2662,2.263,2.2637,2.2634,2.263,2.2603,2.2599,2.2598,2.2605,2.2581,2.2581,2.2581,2.2581,2.2634,2.2636,0,0,0,0,0,0,2.2715,2.2708,2.2693,2.2691,2.2688,2.2664,2.2659,2.2658,2.263,2.2624,2.2631,2.2628,2.26,2.2598,2.2597,2.2627,2.2581,2.2581,2.2581,2.2633,2.2635,2.2636,0,0,0,0,0,0,2.2716,2.2714,2.2695,2.2699,2.2695,2.2665,2.2664,2.2658,2.2655,2.2626,2.262,2.2634,2.2599,2.2597,2.2606,2.2626,2.2581,2.2581,2.2631,2.2634,2.2636,2.2689,0,0,0,0,0,0,2.2716,2.2715,2.2725,2.27,2.2695,2.2705,2.2665,2.2658,2.2655,2.265,2.2627,2.2621,2.2598,2.2607,2.2606,2.2625,2.258,2.2629,2.2632,2.2635,2.2686,2.2693,2.27,0,0,0,0,0,2.2717,2.2741,2.2726,2.2724,2.2708,2.2706,2.2704,2.2677,2.2656,2.2666,2.2648,2.2622,2.2624,2.2608,2.2607,2.2626,2.2628,2.2631,2.2635,2.2683,2.2692,2.2699,0,0,0,0,0,0,2.2769,2.2737,2.272,2.2736,2.2724,2.2698,2.2709,2.2687,2.2681,2.2676,2.2642,2.2638,2.2652,2.2639,2.2623,2.2651,2.2622,2.2625,2.2659,2.2667,2.2674,2.2676,2.258,0,0,0,0,0,2.2783,2.2785,2.2756,2.2774,2.2769,2.274,2.2739,2.2719,2.2705,2.27,2.2682,2.267,2.2667,2.2666,2.2663,2.2684,2.2678,2.2696,2.2703,2.2709,2.2712,2.2723,2.2731,2.2647,2.2647,2.2647,0,0,2.281,2.2793,2.2796,2.2784,2.2772,2.2775,2.2736,2.2741,2.2742,2.27,2.2708,2.2695,2.2679,2.2695,2.2701,2.2685,2.2734,2.2713,2.2718,2.2718,2.2727,2.2735,2.2742,2.265,2.2649,2.2649,0,0,2.2862,2.2849,2.2862,2.2852,2.2835,2.2816,2.282,2.2796,2.2786,2.2793,2.2762,2.2763,2.276,2.275,2.2745,2.2794,2.277,2.2793,2.2829,2.284,2.2847,2.2853,2.287,2.2877,2.2797,2.2797,2.2797,0,2.2899,2.2902,2.2872,2.2879,2.2874,2.2837,2.285,2.2841,2.2824,2.2822,2.2805,2.28,2.2787,2.28,2.2812,2.2808,2.2811,2.2796,2.2848,2.2854,2.2859,2.2875,2.2882,2.28,2.28,2.2799,2.2799,0,2.2947,2.295,2.2963,2.2947,2.2944,2.2954,2.2926,2.2927,2.2907,2.289,2.2899,2.2881,2.2874,2.2875,2.2856,2.2886,2.2877,2.2855,2.2824,2.287,2.2885,2.2891,2.2804,2.2803,2.2802,2.2802,0,0,2.3031,2.3,2.3005,2.2998,2.2977,2.2978,2.2986,2.2979,2.298,2.297,2.2976,2.2975,2.2954,2.2948,2.2927,2.2937,2.2977,2.2914,2.2913,2.2926,2.3009,2.3026,2.3034,2.2961,2.2963,2.2963,2.3011,0,2.3079,2.3091,2.3065,2.3084,2.3086,2.3051,2.3058,2.3046,2.303,2.303,2.3012,2.3012,2.2985,2.2981,2.2989,2.2971,2.2994,2.2967,2.2967,2.2967,2.2972,2.3042,2.306,2.3105,2.3017,2.3017,2.3018,0,2.3136,2.3129,2.3148,2.3127,2.3126,2.3133,2.3125,2.3125,2.3111,2.3099,2.3093,2.3068,2.3075,2.3046,2.3055,2.3038,2.3036,2.3027,2.3029,2.3027,2.2996,2.3043,2.3119,2.3126,2.3027,2.3026,2.3026,0,2.3195,2.3191,2.3201,2.3196,2.3171,2.3177,2.3167,2.3152,2.3149,2.3142,2.314,2.3133,2.313,2.3125,2.31,2.3081,2.3112,2.3081,2.3103,2.3104,2.3111,2.3111,2.3188,2.311,2.311,2.311,2.311,0,2.3251,2.3265,2.3228,2.3235,2.3248,2.3218,2.3233,2.3219,2.3206,2.321,2.3178,2.3183,2.3149,2.315,2.313,2.3141,2.3139,2.313,2.3124,2.3133,2.3134,2.3131,2.3128,2.3111,2.3111,2.3111,2.311,0,2.332,2.3296,2.3305,2.3281,2.3275,2.3287,2.3266,2.3271,2.3254,2.3259,2.3258,2.3231,2.323,2.3205,2.3198,2.3185,2.3204,2.3192,2.3209,2.3205,2.3228,2.3227,2.3307,2.3316,2.3232,2.3233,2.3233,0,2.3357,2.3367,2.3344,2.3344,2.3335,2.3336,2.3334,2.3305,2.3303,2.3288,2.3296,2.3292,2.3288,2.3288,2.3267,2.3262,2.3251,2.3279,2.325,2.3258,2.3252,2.3251,2.3252,2.3286,2.3287,2.3287,2.3288,0,2.3427,2.3414,2.3412,2.3405,2.3403,2.3397,2.3388,2.339,2.3358,2.3358,2.3357,2.3354,2.3348,2.3345,2.3336,2.3325,2.3302,2.3298,2.3302,2.3311,2.332,2.3316,2.3226,2.3296,2.3295,2.3295,2.3294,2.3294,2.3481,2.3488,2.3473,2.3471,2.3462,2.3455,2.3459,2.3442,2.344,2.3433,2.3416,2.3418,2.3404,2.339,2.3381,2.3382,2.3368,2.3375,2.3377,2.3379,2.3384,2.332,2.3381,2.338,2.338,2.338,2.338,0,2.3549,2.3537,2.3536,2.3525,2.3524,2.3502,2.3492,2.3492,2.3494,2.3483,2.348,2.3479,2.3476,2.3456,2.345,2.3455,2.3444,2.3455,2.3454,2.3452,2.3397,2.3393,2.3464,2.3464,2.3464,2.3464,2.3464,2.3464,2.3584,2.3594,2.3581,2.3586,2.3575,2.3576,2.3573,2.3566,2.3557,2.3557,2.3555,2.3542,2.3527,2.3521,2.3517,2.3511,2.3511,2.3525,2.3516,2.3464,2.3456,2.3448,2.3445,2.3525,2.3526,2.3572,2.3572,2.3572]}]]